Location: Forst
(46.9333°N, 15.4333°E)
Time: 06:19:57
(UTC+00:00)

Cosmos 923 Rocket - Pass Details

Date: 01 December 2020
Orbit: 757 x 786 km, 74.0° (Epoch: 18 January)

Event Time Altitude Azimuth Distance (km) Brightness Sun altitude
Rises 17:16:01 0° 191° (S) 3,201 7.5 -20.6°
Reaches altitude 10° 17:18:23 10° 189° (S) 2,281 6.7 -21.0°
Maximum altitude 17:23:30 65° 108° (ESE) 834 3.9 -21.8°
Enters shadow 17:24:49 47° 49° (NE) 1,000 4.2 -22.1°
